| time (UTC) | temp F | wind direction | speed MPH | gust MPH | rain 1hr in | rain 24hr in | rain mn in | humidity % | barometer mb |
| 20260506233103 | 60 | 36 | 3.0 | 6.0 | 0.00 | 0.02 | 0.00 | 45 | 1014.6 |
| 20260506232104 | 60 | 59 | 1.0 | 3.0 | 0.00 | 0.02 | 0.00 | 44 | 1014.6 |
| 20260506231103 | 61 | 22 | 3.0 | 5.0 | 0.00 | 0.02 | 0.00 | 42 | 1014.4 |
| 20260506225104 | 62 | 320 | 1.0 | 2.0 | 0.00 | 0.02 | 0.00 | 41 | 1014.3 |
| 20260506224102 | 61 | 335 | 1.0 | 1.0 | 0.00 | 0.02 | 0.00 | 43 | 1014.2 |
| 20260506223104 | 61 | 23 | 5.0 | 6.0 | 0.00 | 0.02 | 0.00 | 42 | 1014.1 |
| 20260506222102 | 61 | 356 | 0.0 | 3.0 | 0.00 | 0.02 | 0.00 | 41 | 1014.2 |
| 20260506221103 | 61 | 20 | 2.0 | 6.0 | 0.00 | 0.02 | 0.00 | 41 | 1014.2 |
| 20260506215102 | 61 | 33 | 3.0 | 6.0 | 0.00 | 0.02 | 0.00 | 41 | 1014.3 |
| 20260506214103 | 62 | 43 | 6.0 | 12.0 | 0.00 | 0.02 | 0.00 | 41 | 1014.2 |
| 20260506213102 | 62 | 329 | 1.0 | 10.0 | 0.00 | 0.02 | 0.00 | 42 | 1014.3 |
| 20260506212102 | 61 | 341 | 3.0 | 7.0 | 0.00 | 0.02 | 0.00 | 40 | 1014.4 |
| 20260506211103 | 62 | 72 | 7.0 | 7.0 | 0.00 | 0.02 | 0.00 | 40 | 1014.6 |
| 20260506205103 | 61 | 19 | 5.0 | 6.0 | 0.00 | 0.02 | 0.00 | 41 | 1014.7 |
| 20260506204104 | 61 | 22 | 3.0 | 3.0 | 0.00 | 0.02 | 0.00 | 42 | 1014.8 |
| 20260506203103 | 62 | 48 | 3.0 | 3.0 | 0.00 | 0.02 | 0.00 | 41 | 1014.9 |
| 20260506202103 | 61 | 29 | 2.0 | 9.0 | 0.00 | 0.02 | 0.00 | 43 | 1015.2 |
| 20260506201103 | 62 | 37 | 5.0 | 6.0 | 0.00 | 0.02 | 0.00 | 40 | 1015.2 |
| 20260506200104 | 61 | 38 | 3.0 | 6.0 | 0.00 | 0.02 | 0.00 | 40 | 1015.4 |
| 20260506195103 | 61 | 36 | 6.0 | 8.0 | 0.00 | 0.02 | 0.00 | 40 | 1015.7 |
| 20260506194102 | 61 | 195 | 2.0 | 3.0 | 0.00 | 0.02 | 0.00 | 40 | 1015.7 |
| 20260506193104 | 61 | 101 | 3.0 | 9.0 | 0.00 | 0.02 | 0.00 | 39 | 1015.7 |
| 20260506192103 | 61 | 13 | 2.0 | 7.0 | 0.00 | 0.02 | 0.00 | 41 | 1015.6 |
| 20260506191103 | 61 | 67 | 2.0 | 3.0 | 0.00 | 0.02 | 0.00 | 42 | 1015.6 |
| 20260506185103 | 60 | 38 | 5.0 | 9.0 | 0.00 | 0.02 | 0.00 | 42 | 1015.7 |
| 20260506184103 | 60 | 21 | 7.0 | 16.0 | 0.00 | 0.02 | 0.00 | 43 | 1015.8 |
| 20260506183102 | 60 | 27 | 5.0 | 8.0 | 0.00 | 0.02 | 0.00 | 46 | 1015.9 |
| 20260506182103 | 59 | 33 | 3.0 | 3.0 | 0.00 | 0.02 | 0.00 | 48 | 1016.3 |
| 20260506181102 | 59 | 24 | 8.0 | 13.0 | 0.00 | 0.02 | 0.00 | 48 | 1016.3 |
| 20260506180103 | 59 | 23 | 6.0 | 12.0 | 0.00 | 0.02 | 0.00 | 49 | 1016.3 |
| 20260506175102 | 59 | 53 | 3.0 | 5.0 | 0.00 | 0.02 | 0.00 | 47 | 1016.3 |
| 20260506174104 | 58 | 20 | 1.0 | 5.0 | 0.00 | 0.02 | 0.00 | 48 | 1016.4 |
| 20260506173103 | 58 | 21 | 5.0 | 14.0 | 0.00 | 0.02 | 0.00 | 49 | 1016.6 |
| 20260506172103 | 58 | 27 | 7.0 | 12.0 | 0.00 | 0.02 | 0.00 | 50 | 1016.6 |
| 20260506171103 | 57 | 34 | 7.0 | 9.0 | 0.00 | 0.02 | 0.00 | 53 | 1016.6 |
| 20260506170104 | 57 | 24 | 8.0 | 13.0 | 0.00 | 0.02 | 0.00 | 51 | 1016.7 |
| 20260506165103 | 57 | 27 | 6.0 | 12.0 | 0.00 | 0.02 | 0.00 | 55 | 1016.4 |
| 20260506164104 | 56 | 31 | 3.0 | 7.0 | 0.00 | 0.02 | 0.00 | 55 | 1016.6 |
| 20260506163103 | 56 | 44 | 5.0 | 6.0 | 0.00 | 0.02 | 0.00 | 57 | 1016.3 |
| 20260506162104 | 56 | 348 | 3.0 | 9.0 | 0.00 | 0.02 | 0.00 | 61 | 1016.4 |
| 20260506161103 | 55 | 26 | 3.0 | 9.0 | 0.00 | 0.02 | 0.00 | 62 | 1016.3 |
| 20260506160104 | 54 | 22 | 5.0 | 10.0 | 0.00 | 0.02 | 0.00 | 64 | 1016.7 |
| 20260506155103 | 54 | 7 | 2.0 | 8.0 | 0.00 | 0.02 | 0.00 | 66 | 1016.6 |
| 20260506154102 | 53 | 330 | 6.0 | 7.0 | 0.00 | 0.02 | 0.00 | 63 | 1016.5 |
| 20260506153103 | 54 | 20 | 5.0 | 10.0 | 0.00 | 0.02 | 0.00 | 66 | 1016.4 |
| 20260506152102 | 52 | 15 | 5.0 | 6.0 | 0.00 | 0.02 | 0.00 | 67 | 1016.4 |
| 20260506151105 | 51 | 42 | 7.0 | 8.0 | 0.00 | 0.02 | 0.00 | 67 | 1016.8 |
| 20260506150104 | 51 | 23 | 6.0 | 6.0 | 0.00 | 0.02 | 0.00 | 68 | 1016.7 |
| 20260506145103 | 50 | 18 | 2.0 | 3.0 | 0.00 | 0.02 | 0.00 | 71 | 1016.4 |
| 20260506144104 | 50 | 26 | 5.0 | 6.0 | 0.00 | 0.02 | 0.00 | 70 | 1016.6 |
| 20260506143105 | 50 | 14 | 2.0 | 3.0 | 0.00 | 0.02 | 0.00 | 72 | 1016.5 |
| 20260506142104 | 50 | 29 | 5.0 | 7.0 | 0.00 | 0.02 | 0.00 | 71 | 1016.6 |
| 20260506141105 | 50 | 19 | 1.0 | 3.0 | 0.00 | 0.02 | 0.00 | 72 | 1016.6 |
| 20260506140104 | 49 | 31 | 3.0 | 5.0 | 0.00 | 0.02 | 0.00 | 75 | 1016.1 |
| 20260506135105 | 48 | 24 | 3.0 | 7.0 | 0.00 | 0.02 | 0.00 | 78 | 1016.2 |
| 20260506134104 | 47 | 13 | 3.0 | 3.0 | 0.00 | 0.02 | 0.00 | 80 | 1016.3 |
| 20260506133105 | 47 | 42 | 2.0 | 3.0 | 0.00 | 0.02 | 0.00 | 80 | 1016.3 |
| 20260506132104 | 47 | 29 | 5.0 | 6.0 | 0.00 | 0.02 | 0.00 | 81 | 1016.6 |
| 20260506131105 | 46 | 40 | 0.0 | 2.0 | 0.00 | 0.02 | 0.00 | 83 | 1016.6 |
| 20260506130104 | 46 | 14 | 1.0 | 3.0 | 0.00 | 0.02 | 0.00 | 82 | 1016.3 |
| 20260506125105 | 46 | 30 | 3.0 | 3.0 | 0.00 | 0.02 | 0.00 | 82 | 1016.0 |
| 20260506124104 | 46 | 347 | 2.0 | 3.0 | 0.00 | 0.02 | 0.00 | 82 | 1015.9 |
| 20260506123103 | 46 | 20 | 2.0 | 5.0 | 0.00 | 0.02 | 0.00 | 81 | 1015.9 |
| 20260506122104 | 46 | 48 | 2.0 | 3.0 | 0.00 | 0.02 | 0.00 | 80 | 1015.4 |
| 20260506121103 | 45 | 30 | 1.0 | 3.0 | 0.00 | 0.02 | 0.00 | 81 | 1015.3 |
| 20260506120104 | 45 | 16 | 1.0 | 3.0 | 0.00 | 0.02 | 0.00 | 82 | 1015.1 |
| 20260506115105 | 45 | 59 | 1.0 | 2.0 | 0.00 | 0.02 | 0.00 | 83 | 1014.8 |
| 20260506114106 | 45 | 35 | 1.0 | 3.0 | 0.00 | 0.02 | 0.00 | 83 | 1014.7 |
| 20260506113105 | 45 | 40 | 1.0 | 3.0 | 0.00 | 0.02 | 0.00 | 83 | 1014.6 |
| 20260506112105 | 45 | 36 | 2.0 | 3.0 | 0.00 | 0.02 | 0.00 | 83 | 1014.6 |
| 20260506111104 | 45 | 18 | 2.0 | 3.0 | 0.00 | 0.02 | 0.00 | 83 | 1014.1 |
| 20260506110105 | 45 | 48 | 1.0 | 2.0 | 0.00 | 0.02 | 0.00 | 83 | 1014.1 |
| 20260506105104 | 45 | 29 | 2.0 | 3.0 | 0.00 | 0.02 | 0.00 | 83 | 1014.5 |
| 20260506104103 | 45 | 28 | 2.0 | 3.0 | 0.00 | 0.02 | 0.00 | 84 | 1014.2 |
| 20260506103103 | 45 | 30 | 2.0 | 3.0 | 0.00 | 0.02 | 0.00 | 84 | 1013.9 |
| 20260506102104 | 45 | 19 | 2.0 | 5.0 | 0.00 | 0.02 | 0.00 | 84 | 1014.1 |
| 20260506101105 | 45 | 31 | 2.0 | 3.0 | 0.00 | 0.02 | 0.00 | 84 | 1013.8 |
| 20260506100104 | 45 | 25 | 2.0 | 3.0 | 0.00 | 0.02 | 0.00 | 84 | 1013.6 |
| 20260506095105 | 45 | 42 | 2.0 | 3.0 | 0.00 | 0.02 | 0.00 | 83 | 1013.7 |
| 20260506094104 | 45 | 25 | 3.0 | 6.0 | 0.00 | 0.02 | 0.00 | 84 | 1013.8 |
| 20260506093106 | 45 | 8 | 2.0 | 3.0 | 0.00 | 0.02 | 0.00 | 84 | 1013.9 |
| 20260506092104 | 45 | 27 | 5.0 | 9.0 | 0.00 | 0.02 | 0.00 | 83 | 1013.5 |
| 20260506091103 | 46 | 29 | 2.0 | 6.0 | 0.00 | 0.02 | 0.00 | 82 | 1013.5 |
| 20260506090104 | 46 | 26 | 2.0 | 3.0 | 0.00 | 0.02 | 0.00 | 81 | 1014.1 |
| 20260506085103 | 46 | 51 | 2.0 | 3.0 | 0.00 | 0.02 | 0.00 | 80 | 1014.0 |
| 20260506084104 | 46 | 34 | 3.0 | 7.0 | 0.00 | 0.02 | 0.00 | 80 | 1014.0 |
| 20260506083103 | 46 | 31 | 3.0 | 6.0 | 0.00 | 0.02 | 0.00 | 79 | 1013.6 |
| 20260506082104 | 46 | 21 | 5.0 | 10.0 | 0.00 | 0.02 | 0.00 | 79 | 1014.0 |
| 20260506081103 | 46 | 21 | 6.0 | 10.0 | 0.00 | 0.02 | 0.00 | 79 | 1013.8 |
| 20260506080104 | 46 | 32 | 2.0 | 3.0 | 0.00 | 0.02 | 0.00 | 79 | 1013.8 |
| 20260506072925 | 46 | 22 | 6.0 | 15.0 | 0.00 | 0.02 | 0.00 | 80 | 1012.3 |
| 20260506071925 | 46 | 17 | 7.0 | 9.0 | 0.00 | 0.02 | 0.00 | 80 | 1012.3 |
| 20260506070924 | 46 | 16 | 6.0 | 15.0 | 0.00 | 0.02 | 0.00 | 80 | 1011.8 |
| 20260506061925 | 50 | 31 | 5.0 | 7.0 | 0.00 | 0.02 | 0.00 | 69 | 1012.2 |
| 20260506060926 | 50 | 24 | 3.0 | 7.0 | 0.00 | 0.02 | 0.00 | 66 | 1011.7 |
| 20260506050924 | 51 | 18 | 5.0 | 9.0 | 0.00 | 0.02 | 0.00 | 69 | 1011.5 |
| 20260506044925 | 51 | 18 | 5.0 | 7.0 | 0.00 | 0.02 | 0.02 | 71 | 1011.5 |
| 20260506043926 | 51 | 26 | 3.0 | 3.0 | 0.00 | 0.02 | 0.02 | 71 | 1010.9 |
| 20260506042925 | 51 | 28 | 7.0 | 13.0 | 0.00 | 0.02 | 0.02 | 71 | 1011.0 |
| 20260506041926 | 51 | 28 | 3.0 | 7.0 | 0.00 | 0.02 | 0.02 | 74 | 1011.2 |
| 20260506040925 | 51 | 17 | 3.0 | 7.0 | 0.01 | 0.02 | 0.02 | 75 | 1011.2 |
| 20260506035926 | 50 | 25 | 2.0 | 6.0 | 0.01 | 0.02 | 0.02 | 76 | 1011.5 |
| 20260506034924 | 50 | 18 | 3.0 | 5.0 | 0.01 | 0.02 | 0.02 | 76 | 1011.7 |
| 20260506033926 | 50 | 35 | 3.0 | 5.0 | 0.01 | 0.02 | 0.02 | 76 | 1011.6 |
| 20260506032924 | 50 | 35 | 1.0 | 3.0 | 0.01 | 0.02 | 0.02 | 77 | 1011.7 |
| 20260506031925 | 50 | 5 | 1.0 | 2.0 | 0.02 | 0.02 | 0.02 | 78 | 1011.4 |
| 20260506030926 | 50 | 29 | 3.0 | 6.0 | 0.01 | 0.01 | 0.01 | 78 | 1011.0 |
| 20260506025925 | 50 | 15 | 2.0 | 3.0 | 0.01 | 0.01 | 0.01 | 78 | 1011.2 |
| 20260506024926 | 50 | 15 | 2.0 | 5.0 | 0.01 | 0.01 | 0.01 | 78 | 1011.1 |
| 20260506023925 | 50 | 345 | 2.0 | 3.0 | 0.01 | 0.01 | 0.01 | 79 | 1011.1 |
| 20260506022924 | 51 | 351 | 0.0 | 1.0 | 0.01 | 0.01 | 0.01 | 79 | 1010.9 |
| 20260506021925 | 51 | 26 | 1.0 | 2.0 | 0.00 | 0.00 | 0.00 | 78 | 1010.7 |
| 20260506020924 | 51 | 40 | 0.0 | 0.0 | 0.00 | 0.00 | 0.00 | 76 | 1010.5 |
| 20260506015925 | 51 | 59 | 0.0 | 0.0 | 0.00 | 0.00 | 0.00 | 76 | 1010.4 |
| 20260506014924 | 52 | 81 | 0.0 | 0.0 | 0.00 | 0.00 | 0.00 | 75 | 1010.2 |
| 20260506013925 | 52 | 83 | 1.0 | 1.0 | 0.00 | 0.00 | 0.00 | 73 | 1009.9 |
| 20260506012924 | 52 | 94 | 0.0 | 1.0 | 0.00 | 0.00 | 0.00 | 73 | 1009.9 |
| 20260506011925 | 52 | 28 | 0.0 | 2.0 | 0.00 | 0.00 | 0.00 | 72 | 1009.7 |
| 20260506010924 | 52 | 37 | 0.0 | 1.0 | 0.00 | 0.00 | 0.00 | 72 | 1009.8 |
| 20260506005925 | 52 | 77 | 0.0 | 2.0 | 0.00 | 0.00 | 0.00 | 71 | 1009.7 |
| 20260506004924 | 52 | 89 | 0.0 | 0.0 | 0.00 | 0.00 | 0.00 | 71 | 1009.3 |
| 20260506003925 | 52 | 72 | 0.0 | 0.0 | 0.00 | 0.00 | 0.00 | 70 | 1009.3 |
| 20260506002926 | 52 | 123 | 1.0 | 3.0 | 0.00 | 0.00 | 0.00 | 70 | 1009.3 |
| 20260506001925 | 52 | 48 | 0.0 | 2.0 | 0.00 | 0.00 | 0.00 | 69 | 1009.2 |
| 20260506000925 | 52 | 55 | 1.0 | 3.0 | 0.00 | 0.00 | 0.00 | 69 | 1009.1 |
| 20260505235924 | 52 | 39 | 1.0 | 2.0 | 0.00 | 0.00 | 0.00 | 68 | 1008.8 |
| 20260505234926 | 52 | 18 | 2.0 | 3.0 | 0.00 | 0.00 | 0.00 | 68 | 1009.0 |
| 20260505233925 | 52 | 49 | 2.0 | 6.0 | 0.00 | 0.00 | 0.00 | 68 | 1008.7 |